Regional Weather Roundup
Issued by NWS

Home | Current Version | Previous Version | Text Only | Print | Product List | Glossary Off
Versions: 1 2 3 4 5 6 7 8 9 10 11 12 13 14 15 16 17 18 19 20 21 22 23 24 25 26 27 28 29 30 31 32 33 34 35 36 37 38 39 40 41 42 43 44 45 46 47 48 49 50

000
ASUS43 KIND 011609
RWRIN

WEATHER ROUNDUP FOR INDIANA
NATIONAL WEATHER SERVICE INDIANAPOLIS IN
1200 PM EDT WED APR 01 2015

NOTE: "FAIR" INDICATES FEW OR NO CLOUDS BELOW 12,000 FEET WITH NO
SIGNIFICANT WEATHER AND/OR OBSTRUCTIONS TO VISIBILITY.

* - STATION DOES NOT REPORT WEATHER SUCH AS PRECIPITATION OR FOG.

+ - STATION NOT QUALITY CONTROLLED BY THE NATIONAL WEATHER SERVICE.
    USE DATA WITH CAUTION...ESPECIALLY DEWPOINT AND RELATIVE
    HUMIDITY OBSERVATIONS.

INZ001>003-010>013-019-020-011700-
NORTHWEST INDIANA

CITY           SKY/WX    TMP DP  RH WIND       PRES   REMARKS
GARY /AIRPORT/ SUNNY     61  30  31 SW14      30.07
KNOX *+        SUNNY     61  10  13 SW10      30.09F
LA PORTE +     SUNNY     59  38  45 SW8       30.09F
MICHIGAN CITY+ SUNNY     59  30  33 S9        30.08F
MONTICELLO +   SUNNY     60  38  43 SW8       30.10F
RENSSELAER +   SUNNY     61  39  44 S12       30.09F
VALPARAISO     SUNNY     60  36  40 SW14      30.08F

$$

LMZ046-743>745-011700-
SOUTHERN LAKE MICHIGAN

STATION/POSITION TIME  TEMP WIND        PRES
                       AIR  DIR/SP/G
                 (UTC) (F)  (DEG/KT/KT) (MB)
BURNS HARBOR     1600   57  180/  9/ 14 1019.0S
MICHIGAN CITY    1600   43   20/  7/  8   N/A

$$

INZ004-005-014>016-021>024-011700-
NORTH CENTRAL INDIANA

CITY           SKY/WX    TMP DP  RH WIND       PRES   REMARKS
ELKHART        SUNNY     57  32  38 SW7       30.12S
GOSHEN         SUNNY     58  37  45 W12       30.11S
LOGANSPORT +   SUNNY     59  36  41 S10       30.12S
PERU/GRISSOM   SUNNY     61  37  40 S12       30.10S
ROCHESTER +    SUNNY     61  37  41 SW8       30.11F
SOUTH BEND     SUNNY     57  35  43 SW9       30.11F
WARSAW +       SUNNY     57  36  44 SW7       30.11F

$$

INZ006>009-017-018-025>027-011700-
NORTHEAST INDIANA

CITY           SKY/WX    TMP DP  RH WIND       PRES   REMARKS
ANGOLA *+      SUNNY     57  37  47 W8        30.11S
AUBURN +       SUNNY     55  34  44 W9        30.13R
FORT WAYNE     SUNNY     58  37  45 SW10      30.13S
HUNTINGTON +   SUNNY     58  31  36 SW6       30.12F

$$

INZ028-029-035-036-043>045-051>053-011700-
WEST CENTRAL INDIANA

CITY           SKY/WX    TMP DP  RH WIND       PRES   REMARKS
CRAWFORDSVL +  SUNNY     59  29  31 SE7       30.11S
GREENCASTLE +  SUNNY     59  30  33 SE9       30.12F
LAFAYETTE      SUNNY     61  36  39 SW10      30.10F
TERRE HAUTE    SUNNY     61  40  45 S7        30.11F

$$

INZ030>032-037>040-046>048-054>057-064-065-011700-
CENTRAL INDIANA

CITY           SKY/WX    TMP DP  RH WIND       PRES   REMARKS
ANDERSON       SUNNY     43  36  75 S12G17    30.15S
CP ATTERBURY + SUNNY     59  32  36 SE6       30.14S
COLUMBUS       SUNNY     55  30  38 S8        30.15S
FISHERS *+     SUNNY     57  39  51 S8        30.13F
FRANKFORT +    SUNNY     62  36  37 S10       30.13S
GREENWOOD *+   SUNNY     57  32  38 S7        30.14F
INDIANAPOLIS   MOSUNNY   59  33  37 S9        30.11F
-EAGLE CREEK   SUNNY     58  35  42 S9        30.12F
MARION +       SUNNY     56  37  47 S10       30.14S
MT COMFORT *+  SUNNY     57  27  30 S9        30.14S
SHELBYVILLE    SUNNY     58  38  47 S8        30.14F
ZIONSVILLE +   SUNNY     60  32  34 S9        30.13S

$$

INZ033-034-041-042-049-050-058-059-011700-
EAST CENTRAL INDIANA

CITY           SKY/WX    TMP DP  RH WIND       PRES   REMARKS
MUNCIE         SUNNY     57  35  43 SW10      30.14R

$$

INZ060-061-067>069-081>083-085>088-011700-
SOUTHWEST INDIANA

CITY           SKY/WX    TMP DP  RH WIND       PRES   REMARKS
EVANSVILLE     SUNNY     61  38  42 SE10      30.12S
HUNTINGBURG *+ SUNNY     61  37  41 S7        30.13S
WASHINGTON +   SUNNY     60  36  41 SE7       30.12S

$$

INZ062-063-066-070>080-084-089>092-011700-
SOUTH CENTRAL AND SOUTHEAST INDIANA

CITY           SKY/WX    TMP DP  RH WIND       PRES   REMARKS
BEDFORD +      SUNNY     61  28  29 SE7       30.14R
BLOOMINGTON    SUNNY     60  33  36 S12       30.12S
MADISON *+     SUNNY     55  32  41 E5        30.17S
NORTH VERNON + SUNNY     57  34  41 SE6       30.16R
SEYMOUR +      SUNNY     61  37  41 SE8       30.14S

$$




USA.gov is the U.S. government's official web portal to all federal, state and local government web resources and services.